Wind_Speed
44 43 43 43 43 42 39 37 35 32 29 26 24 23 22 19 14 11 10 8 5 1 8 15 19 23 27 32 36 40 43 46 49 52 54 56 57 57 56 55 55 56 57 56 53 52 51 52 53 53 53 54 54 54 54 54 54 54 55 56 57 58 59 59 59 58 57 55 54 54 53 53 53 53 53 53 53 54 55 56 57 58 58 58 57 57
43 42 41 41 41 40 38 35 32 30 26 22 19 19 19 17 12 9 8 6 3 2 9 16 21 25 30 35 39 43 47 50 54 56 58 58 58 57 55 54 55 55 55 54 52 51 51 52 52 52 53 54 54 54 54 54 54 55 56 57 59 59 60 59 58 57 56 55 54 54 53 53 53 52 52 52 52 53 54 56 57 58 58 57 57 57
41 41 40 40 39 38 36 33 30 28 24 19 16 15 15 14 10 7 4 2 2 5 11 17 23 29 34 39 44 48 52 55 58 59 60 59 58 56 55 54 54 55 54 53 52 52 52 52 52 53 53 54 54 54 54 54 54 55 57 58 59 59 59 58 58 56 56 55 55 54 54 54 53 53 52 51 51 52 53 55 56 57 57 56 56 56
40 40 39 38 38 36 34 31 28 26 22 17 13 11 11 11 8 5 3 4 7 10 15 20 27 33 40 45 50 53 57 59 61 61 61 60 58 57 55 54 54 53 53 52 52 52 52 52 53 53 53 53 53 53 53 54 55 55 57 58 59 59 59 58 57 56 55 55 55 55 54 54 53 53 52 51 51 52 53 55 55 56 55 55 55 55
38 38 37 37 36 35 32 29 26 23 20 15 11 9 8 8 6 3 5 9 13 16 20 25 32 39 45 51 55 58 60 62 62 62 62 61 60 58 57 56 54 53 52 52 52 52 52 52 52 53 53 53 52 52 52 53 54 54 55 56 57 58 58 57 56 56 55 55 55 55 55 54 53 53 52 51 52 53 54 55 55 55 54 53 53 54
37 36 35 35 34 33 30 27 24 21 18 13 8 6 5 5 4 3 7 13 18 22 26 31 38 44 51 56 59 61 62 63 63 63 63 62 61 60 59 58 57 56 55 54 53 53 52 52 52 52 52 52 51 51 51 51 51 51 52 53 55 56 57 56 56 55 55 55 55 55 55 54 54 53 52 52 53 54 55 56 56 55 53 53 53 53
35 35 34 33 32 31 28 25 22 19 15 10 6 3 4 4 3 4 9 16 22 28 33 38 44 50 55 59 61 62 63 64 64 64 64 63 62 61 60 59 59 58 58 57 56 56 54 54 53 52 52 51 51 50 49 49 48 49 50 51 54 56 56 56 55 54 54 54 55 55 55 55 54 54 53 53 53 54 56 56 56 55 54 53 53 53
34 33 32 31 30 29 27 23 20 16 13 8 4 1 3 4 4 7 13 20 26 32 38 44 49 54 57 59 60 61 62 63 64 65 64 63 62 61 61 60 59 59 59 59 59 58 57 56 54 53 52 51 51 50 49 48 48 48 49 51 54 56 56 55 54 53 54 54 55 55 55 55 54 54 53 53 54 55 56 56 56 55 54 54 54 54
32 32 31 29 28 27 25 22 18 14 11 6 2 2 4 5 6 10 17 24 30 36 42 48 53 57 58 58 58 59 60 61 63 64 64 63 63 62 62 61 60 59 59 59 58 58 57 56 55 54 53 53 53 52 51 51 50 50 50 52 54 55 55 54 53 53 53 54 55 55 55 55 54 54 54 53 54 55 56 56 56 55 54 54 54 54
30 30 29 28 27 25 24 20 17 13 9 4 2 4 6 7 9 13 19 27 33 39 45 51 55 58 58 58 57 57 57 58 59 61 62 62 63 63 62 61 60 59 59 58 58 57 57 56 56 56 55 55 55 55 54 53 52 51 50 51 52 53 53 52 52 52 53 53 54 54 54 54 54 54 54 54 54 54 55 55 55 55 54 54 54 54
29 29 28 27 25 23 22 19 15 11 7 2 4 7 8 10 12 16 22 28 35 41 47 52 56 58 59 58 57 56 56 56 56 57 58 59 60 60 60 60 59 59 59 59 58 58 57 57 57 57 56 56 56 55 55 54 53 52 51 51 51 52 52 51 51 51 52 52 53 53 53 53 54 54 54 54 54 55 56 56 56 55 55 55 55 55
28 27 27 25 24 22 20 18 14 10 5 2 6 9 11 13 15 19 24 30 36 42 47 53 56 58 59 58 57 56 56 55 55 55 55 56 56 57 57 58 58 58 59 59 58 58 58 57 57 57 56 55 53 53 52 52 52 52 52 51 51 51 51 51 51 51 52 52 52 52 52 52 52 53 53 54 55 56 57 58 58 57 57 56 56 56
27 26 25 25 23 21 18 16 13 9 5 2 7 12 14 16 18 22 26 30 36 42 47 52 56 58 59 58 57 56 55 55 54 54 54 54 54 55 55 56 56 57 57 58 58 58 57 57 57 56 55 53 51 50 50 50 50 51 51 51 51 51 51 52 52 52 52 52 52 52 51 51 52 52 53 54 55 57 58 59 60 59 59 58 58 58
26 25 24 23 22 20 17 15 12 8 4 3 8 14 17 19 21 24 27 31 36 41 46 51 55 57 58 57 56 55 55 54 54 54 54 54 54 54 54 55 55 56 57 57 57 57 57 57 56 56 54 52 51 49 49 50 50 51 51 50 50 51 51 52 53 53 53 53 53 52 52 52 52 52 53 54 55 57 58 60 60 60 59 59 59 59
26 24 23 22 21 19 17 14 11 8 4 4 9 15 19 22 24 27 29 33 36 40 45 50 54 56 56 56 55 55 55 54 54 54 54 54 54 54 54 54 55 56 56 57 57 57 57 57 56 56 54 52 51 50 50 51 51 52 51 51 51 51 51 52 53 53 54 54 54 53 53 53 53 54 54 55 56 58 59 60 60 60 60 59 59 59
27 24 22 21 20 19 17 14 10 7 5 5 9 15 21 24 26 29 31 34 37 41 45 49 52 54 54 54 54 54 54 54 54 54 55 55 55 55 55 55 55 55 56 56 57 57 57 56 56 56 54 53 51 51 52 53 54 54 54 53 52 52 52 53 54 54 54 54 54 54 54 54 55 55 56 57 58 60 61 62 62 62 61 61 61 61
27 25 22 20 19 18 17 14 11 7 5 6 9 14 21 26 29 31 33 35 38 41 44 48 51 52 53 53 53 53 53 54 54 54 55 55 56 56 56 56 56 56 56 56 57 57 57 56 56 55 54 53 53 53 55 57 58 58 57 55 54 54 54 55 55 56 56 56 56 55 55 55 56 57 57 59 60 61 62 63 64 64 64 63 63 63
27 25 22 20 18 17 17 15 12 8 6 6 9 13 19 26 30 33 35 36 39 41 44 47 50 52 52 52 52 52 53 53 53 54 55 56 57 57 57 57 57 57 57 57 57 57 57 57 56 56 55 55 56 57 59 60 61 61 59 58 56 56 56 56 57 58 58 58 58 57 57 57 57 58 58 59 61 62 63 64 64 65 65 65 64 64
28 26 23 20 18 17 16 15 13 10 7 7 9 13 18 24 30 35 36 38 39 41 44 47 49 51 52 52 52 52 52 52 53 53 54 55 57 58 58 58 58 58 58 58 58 58 58 58 58 58 58 58 59 60 61 62 62 62 61 60 58 58 58 59 59 60 60 60 60 59 59 58 58 58 59 60 61 62 62 63 64 64 65 65 65 65
28 26 24 21 19 17 16 15 14 12 9 8 9 12 17 22 29 35 38 40 41 42 44 47 49 50 52 52 52 52 52 53 53 53 54 55 56 58 59 59 59 59 59 59 59 59 59 59 59 60 60 60 60 61 62 63 64 63 63 62 61 60 60 61 62 62 62 62 61 61 60 60 59 59 60 60 61 61 62 62 63 63 64 64 65 65
29 27 24 22 20 18 16 15 15 14 12 10 10 12 16 20 26 33 38 41 42 43 44 46 49 50 52 53 53 53 53 53 53 54 55 56 57 58 59 60 61 61 61 61 61 61 61 61 61 61 61 61 61 62 63 65 65 65 65 64 64 63 63 64 64 64 64 63 63 62 61 61 60 60 60 61 61 61 62 62 62 63 63 64 64 65
30 28 26 23 21 19 17 16 16 15 14 12 11 13 16 19 24 30 36 41 44 45 46 47 48 51 52 53 54 55 55 55 55 55 55 56 57 58 59 60 61 62 63 63 63 63 63 63 63 63 62 62 62 63 64 66 67 67 67 67 66 66 65 66 65 65 65 64 64 63 62 61 61 61 61 61 61 62 62 62 62 63 63 64 64 64
31 29 27 24 22 20 18 17 16 16 16 15 14 14 15 18 22 27 33 39 44 46 48 48 49 51 52 54 55 56 56 57 56 56 57 57 58 59 60 61 62 63 64 65 65 65 65 65 64 64 63 63 63 64 65 66 67 68 68 68 68 68 67 67 67 66 66 65 64 64 63 62 62 61 62 62 62 62 62 62 63 63 63 64 64 64
32 30 28 26 24 22 20 18 18 17 17 17 16 16 16 18 21 25 30 36 41 46 49 50 50 51 52 54 55 57 58 58 58 58 58 59 60 61 61 62 63 64 65 66 66 66 66 66 65 65 64 63 63 64 65 67 68 69 69 69 69 69 68 68 68 67 67 66 65 65 64 63 63 62 62 62 63 63 63 63 63 63 63 64 64 64
33 32 30 28 26 24 22 20 19 19 19 19 19 18 18 19 21 24 28 32 38 43 48 50 51 52 53 54 55 57 59 60 60 60 60 60 61 62 62 63 64 65 66 67 68 68 67 67 66 66 65 64 64 65 66 67 68 69 70 70 70 70 70 69 69 68 68 67 67 66 66 65 64 64 64 63 63 63 63 63 63 64 64 64 64 64
35 33 32 30 28 26 24 22 21 20 20 21 21 21 20 20 21 23 26 30 34 39 45 49 52 54 54 55 56 57 59 61 61 62 62 62 62 63 64 64 65 66 67 68 69 69 69 69 68 67 66 66 65 66 66 67 68 69 70 71 71 71 71 71 70 70 69 69 68 68 68 67 67 66 66 65 65 64 64 64 64 64 64 64 64 64
36 34 33 32 30 28 26 24 23 22 22 22 23 23 23 23 23 24 26 29 32 36 41 46 50 53 55 56 57 58 59 61 62 63 63 63 63 64 65 65 66 66 68 69 70 70 71 70 70 69 68 68 67 67 67 68 68 69 70 71 71 72 72 72 71 71 71 71 70 70 70 70 69 69 68 67 67 66 66 66 65 65 65 65 64 64
37 36 34 33 32 30 28 26 25 24 24 24 25 25 25 25 25 26 27 28 31 34 38 42 47 51 54 56 58 59 60 61 62 64 64 64 65 65 66 66 67 67 68 69 70 71 72 72 72 71 71 70 69 69 69 69 69 69 70 70 71 72 72 72 72 72 72 72 72 72 72 71 71 71 70 70 69 69 68 68 67 67 66 66 65 65
38 37 36 34 33 32 30 29 27 26 26 26 26 27 27 27 28 28 28 29 31 33 36 39 43 48 52 55 58 59 60 61 63 64 65 65 66 66 67 67 68 68 69 69 70 71 73 73 74 73 73 73 72 72 71 71 70 70 70 71 71 72 72 73 73 73 73 73 72 72 72 72 72 72 72 71 71 71 70 70 70 69 69 68 68 67
39 38 37 36 34 33 32 31 30 29 28 28 28 29 29 30 30 30 30 30 31 33 35 38 41 44 48 52 55 58 60 62 63 65 65 66 66 67 68 68 69 69 70 70 71 72 73 74 75 75 76 76 75 75 74 73 73 72 72 72 72 73 73 73 73 73 73 73 73 73 73 73 73 72 72 72 72 72 72 72 72 71 71 70 70 69
39 38 37 36 35 35 34 33 32 31 30 30 30 31 31 32 32 33 33 33 33 34 35 37 39 42 45 48 51 55 58 61 63 65 66 66 67 68 68 69 69 70 71 71 71 72 73 74 75 76 77 77 78 77 77 76 76 75 74 74 74 74 74 74 74 74 74 74 74 73 73 73 73 73 73 73 73 73 73 73 73 73 72 72 71 71
40 39 38 37 36 35 35 34 34 33 32 32 32 33 33 34 35 35 35 35 35 36 37 38 39 41 43 46 49 52 56 59 61 64 65 67 68 69 69 69 70 70 71 72 72 73 74 75 76 76 77 78 78 79 79 78 78 77 77 76 75 75 75 75 75 75 75 75 74 74 74 73 73 73 73 73 73 73 73 73 73 73 73 72 72 72
40 39 38 38 37 36 36 35 35 34 34 34 34 34 35 36 37 37 38 38 38 38 39 39 40 42 43 45 47 50 53 56 59 62 64 66 68 69 70 70 70 70 71 72 73 74 74 75 76 77 78 78 79 79 80 80 80 79 79 78 77 77 77 76 76 76 76 75 75 75 74 74 74 73 73 73 73 73 73 73 73 73 73 72 72 72
40 39 39 38 37 37 36 36 36 35 35 35 35 35 36 37 39 39 40 40 41 41 41 42 42 43 44 45 46 48 50 53 56 59 62 64 67 69 70 70 71 71 71 72 73 73 74 75 77 78 79 79 80 80 80 81 81 81 80 80 79 79 78 77 77 76 76 76 76 75 75 74 74 73 73 73 73 73 73 73 73 73 73 72 72 72
40 39 39 38 38 37 37 37 36 36 36 36 36 36 37 38 40 41 42 43 43 44 44 44 44 45 46 47 47 48 50 52 54 56 59 62 64 67 69 70 71 72 72 72 72 73 74 75 76 77 79 80 81 81 82 82 82 82 82 82 81 80 79 78 78 77 77 77 76 76 76 75 75 74 74 74 74 73 73 73 73 73 73 73 72 72
40 39 39 38 38 37 37 37 37 36 36 36 36 37 37 38 40 41 43 44 45 46 46 47 47 47 48 48 49 50 51 52 53 55 57 60 62 65 67 69 71 72 72 72 73 73 74 74 76 77 78 80 81 82 83 83 83 83 83 83 82 81 80 80 79 78 78 77 77 77 77 76 76 76 75 75 75 75 74 74 74 74 74 73 73 73
40 39 39 38 38 37 37 37 36 36 36 36 37 37 37 38 40 41 43 45 46 47 48 49 49 49 50 50 51 52 52 53 54 55 56 58 60 63 65 68 70 71 72 72 73 73 74 74 75 76 77 79 80 82 83 84 84 84 84 84 83 82 82 81 80 79 79 78 78 78 78 78 77 77 77 76 76 76 76 76 76 75 75 75 74 74
39 39 38 38 37 37 37 36 36 36 36 36 36 37 37 38 39 41 43 45 47 48 50 50 51 51 52 52 52 53 54 54 55 56 57 58 60 61 64 66 68 70 71 72 73 73 74 74 74 75 76 78 80 81 82 83 84 85 85 85 84 83 83 82 82 81 80 80 79 79 79 79 78 78 78 78 77 77 77 77 77 77 76 76 76 75
39 39 38 38 37 37 36 36 35 35 35 36 36 36 37 38 39 40 42 44 46 48 50 52 53 53 53 54 54 54 55 55 56 57 58 59 60 61 63 64 66 68 70 72 72 73 74 74 75 76 76 77 79 80 81 82 84 85 85 85 85 84 84 84 83 82 82 81 81 80 80 80 80 79 79 79 78 78 78 78 78 78 78 77 77 77
39 39 38 38 37 36 36 35 35 35 35 35 35 36 37 37 38 39 41 43 45 47 49 52 53 54 55 55 55 56 56 56 57 58 59 60 61 62 63 64 66 68 69 71 72 73 74 74 75 76 77 77 78 79 80 81 82 84 85 85 85 85 85 85 84 84 83 83 82 82 81 81 81 80 80 80 79 79 79 79 79 79 79 78 78 77
39 39 38 38 37 36 36 35 35 35 35 35 35 36 36 37 38 39 40 42 43 45 48 50 52 54 55 56 57 57 57 57 58 58 59 60 61 62 63 64 66 67 69 70 71 73 74 75 75 76 77 77 78 78 79 80 81 83 84 84 85 86 86 85 85 84 84 84 83 83 83 82 82 81 81 81 81 80 80 80 80 80 79 79 79 78
39 39 39 38 37 37 36 36 36 35 35 35 35 36 36 37 38 38 39 41 42 44 45 48 50 53 55 56 58 58 59 59 59 59 60 60 61 62 63 64 66 67 68 70 71 72 74 75 76 76 77 78 78 78 79 80 80 81 82 83 85 86 86 86 86 85 85 84 84 84 83 83 83 82 82 82 82 81 81 81 80 80 80 80 80 79
40 40 39 39 38 38 37 37 37 36 36 36 36 37 37 37 38 38 39 40 41 42 44 45 47 50 52 55 57 58 59 60 60 61 61 61 62 62 63 64 65 67 68 69 71 72 74 75 76 77 78 78 79 79 79 80 80 81 81 82 83 84 84 85 86 86 86 85 85 85 84 84 83 83 83 83 83 82 82 82 81 81 81 80 80 80
41 40 40 40 39 39 39 39 38 38 38 38 38 38 38 38 38 39 40 40 41 42 42 44 45 47 50 52 55 57 59 61 61 62 62 63 63 63 64 64 65 66 67 69 70 72 74 75 76 77 79 79 80 80 80 81 81 81 81 82 82 83 84 85 86 86 86 86 86 86 85 85 84 84 83 83 83 83 82 82 82 82 81 81 80 80
42 41 41 41 41 41 41 41 40 40 40 40 40 40 40 40 40 40 40 41 41 42 42 43 44 45 47 49 52 54 57 59 61 63 63 64 64 64 65 65 65 66 67 68 70 71 73 74 76 78 79 80 80 81 81 82 82 82 82 82 82 83 84 85 86 86 86 87 87 87 87 87 86 85 84 84 83 83 83 82 82 82 81 81 81 80
43 43 42 42 42 43 43 43 42 42 42 42 42 42 41 41 41 41 42 42 42 42 43 43 44 45 46 47 49 51 54 57 60 62 64 65 65 66 66 66 66 67 67 68 69 70 72 73 75 77 78 79 81 82 83 83 84 84 84 84 83 83 84 84 85 85 86 87 88 88 89 89 88 87 86 85 85 84 83 82 82 81 81 81 80 80
44 44 44 44 44 44 44 44 44 44 44 44 44 44 43 43 43 43 43 43 44 44 44 44 45 45 46 47 48 49 51 54 57 59 62 64 66 67 67 68 68 68 68 69 69 70 71 72 74 75 77 78 80 82 83 84 84 85 85 85 85 85 85 85 85 86 86 87 87 88 89 89 89 89 89 88 87 86 85 84 83 82 81 81 80 80
45 45 45 45 45 45 46 46 46 46 46 46 46 46 45 45 45 45 45 45 45 45 45 46 46 46 47 47 48 49 50 52 54 56 59 62 64 66 68 69 69 70 70 70 70 70 71 71 72 74 75 77 79 81 82 83 84 85 86 86 86 86 86 86 87 87 87 87 88 88 89 89 90 90 91 91 90 89 88 87 85 84 83 82 81 80
46 46 46 46 46 47 47 47 47 47 48 48 48 47 47 47 47 47 47 47 47 47 47 47 48 48 48 49 49 49 50 51 53 54 56 59 62 64 67 68 70 71 71 72 71 71 71 72 72 73 74 76 77 79 81 82 83 85 85 86 86 87 87 87 87 87 87 88 88 88 89 89 90 91 91 92 92 92 91 90 89 87 86 85 83 82
47 47 47 47 47 48 48 48 48 49 49 49 49 49 49 49 49 49 49 49 49 49 49 49 49 50 50 50 51 51 51 52 53 54 55 57 59 62 64 67 69 70 72 73 73 73 73 73 73 73 73 74 76 77 79 80 82 83 84 85 86 86 87 87 88 88 88 88 88 88 89 89 90 91 91 91 92 93 93 92 91 90 89 88 87 86
48 48 48 48 49 49 49 49 50 50 50 50 50 51 51 51 50 50 50 50 50 50 51 51 51 51 52 52 52 53 53 53 54 54 55 56 57 59 62 64 66 69 71 73 74 75 75 75 75 74 74 74 74 75 77 78 80 81 82 84 85 86 86 87 87 87 88 88 88 88 88 89 89 90 90 91 91 92 92 92 92 92 91 90 90 89
Wind_Direction
330 333 335 338 339 339 339 338 337 336 334 332 330 332 336 344 355 9 16 10 5 151 175 175 174 173 171 167 164 163 163 161 160 160 161 161 161 163 165 167 169 171 172 174 177 180 184 188 192 196 198 200 202 204 206 208 211 212 214 216 218 221 222 223 224 226 228 229 231 234 235 237 239 241 243 244 246 248 249 251 252 253 254 255 256 257
330 332 335 338 340 340 340 339 338 337 334 331 330 331 335 342 356 13 15 4 6 140 167 170 170 168 165 161 159 158 157 156 156 156 156 157 158 160 163 165 168 170 172 175 178 182 186 190 194 197 199 201 203 204 206 209 211 213 216 218 220 221 223 224 225 226 227 229 231 233 235 237 238 240 242 244 246 248 250 251 253 253 254 255 256 257
330 332 335 338 340 341 341 340 340 338 335 331 330 332 337 342 357 20 31 36 99 142 157 164 164 161 158 156 155 154 153 152 152 153 154 155 156 158 161 164 167 170 173 176 180 184 188 191 194 197 200 202 203 205 207 209 212 214 217 219 221 222 223 224 225 226 227 229 230 232 234 236 238 240 241 243 245 247 250 251 253 254 255 256 257 257
330 332 335 338 340 342 342 342 341 340 337 331 329 335 342 347 359 28 85 118 133 144 153 158 158 156 154 152 151 150 150 150 150 151 152 153 155 157 159 163 167 171 175 179 182 186 189 191 194 197 200 203 204 206 208 210 213 216 219 221 223 224 225 226 226 227 228 229 231 233 235 236 238 239 240 242 244 246 248 250 252 253 255 256 257 257
330 332 334 338 340 342 343 343 343 341 338 332 329 338 351 357 5 38 119 134 140 146 152 154 155 153 151 150 149 148 148 149 150 151 152 153 154 157 160 164 168 172 177 181 185 188 190 192 195 197 200 203 205 207 209 212 215 218 221 224 225 226 227 227 227 228 228 230 232 233 235 236 237 238 239 240 242 245 247 249 250 252 253 254 255 256
330 331 334 337 340 343 344 344 344 342 340 333 331 343 6 14 20 68 129 140 144 148 151 152 153 152 150 149 148 148 149 150 151 152 153 154 156 159 162 166 169 174 178 182 186 188 191 193 195 198 200 203 206 208 211 214 216 220 223 225 227 227 227 227 228 228 229 231 232 234 235 236 236 237 238 240 241 244 246 248 249 250 251 252 253 254
329 330 333 336 340 343 344 344 344 344 341 334 331 354 34 43 65 118 139 145 147 148 150 152 152 151 149 148 148 149 151 152 153 154 155 157 159 161 165 168 171 175 178 181 184 187 189 192 194 197 200 204 206 209 211 214 216 219 221 224 225 226 226 226 227 228 230 232 233 234 235 236 236 237 238 239 241 243 246 247 248 249 250 251 251 252
329 329 331 335 339 342 344 344 345 345 342 334 327 34 73 86 115 140 147 148 148 149 150 151 151 150 149 149 150 152 154 155 156 157 158 160 162 164 167 170 173 176 179 181 183 185 187 189 192 195 199 203 205 207 209 211 213 215 217 220 222 223 223 224 225 227 229 231 233 234 235 236 236 237 238 239 241 243 245 247 248 249 249 249 250 251
328 329 330 334 338 342 344 344 345 345 343 333 308 132 109 119 139 152 152 151 150 150 151 152 151 150 150 151 153 155 158 159 160 161 162 163 165 167 169 172 174 177 180 182 183 185 186 188 190 192 195 199 202 204 206 208 210 212 214 218 220 221 221 222 224 226 229 231 233 234 235 236 237 237 238 239 241 243 245 246 247 248 248 248 248 249
327 327 328 331 336 340 343 344 344 344 343 325 218 160 135 138 150 158 158 155 153 153 154 154 153 152 153 154 156 159 161 162 164 165 166 167 168 169 171 173 175 177 180 182 184 185 187 189 190 192 194 196 199 201 204 206 208 211 213 217 219 219 220 221 224 227 229 231 233 234 235 236 237 237 238 239 240 242 244 245 245 246 246 246 247 248
326 326 327 329 333 338 342 342 342 341 341 306 197 172 151 148 156 162 162 160 158 157 157 157 156 156 156 157 159 161 163 165 166 168 170 171 172 172 173 174 176 178 180 182 184 186 188 190 192 193 195 197 199 201 203 206 208 211 213 216 217 218 218 220 223 226 229 230 232 233 234 235 236 237 237 238 239 240 241 242 243 244 244 245 246 247
324 325 325 326 330 335 339 341 340 338 333 263 191 177 161 155 159 165 166 164 163 161 161 160 160 159 159 160 161 162 164 166 168 170 172 174 175 176 177 178 179 180 181 183 185 187 189 191 193 195 197 199 201 203 205 208 210 212 215 216 216 217 217 220 222 224 227 228 230 231 232 234 235 236 236 237 238 239 240 241 242 243 244 245 247 249
322 323 323 323 325 330 336 339 338 334 323 229 190 180 170 162 163 166 169 169 167 166 165 164 163 163 163 162 163 164 166 168 170 172 174 176 177 179 180 181 181 182 184 185 187 188 190 192 194 196 198 201 203 206 209 212 214 216 218 218 218 218 219 220 222 224 226 227 228 229 230 232 233 234 236 237 238 240 241 243 244 245 246 248 249 251
319 320 321 320 322 325 331 336 335 329 307 223 193 185 178 170 167 169 171 172 172 170 169 168 167 167 166 165 165 166 167 169 172 174 176 178 179 181 182 183 184 185 186 187 188 190 192 193 195 197 199 202 205 208 212 215 217 219 221 221 221 221 222 224 225 227 228 228 229 230 230 232 233 235 236 238 239 241 243 245 246 248 249 250 252 253
316 318 318 318 318 319 324 330 331 324 297 229 198 190 185 177 172 171 173 174 175 175 174 173 172 171 170 169 169 169 170 172 174 176 178 180 182 183 184 185 186 187 188 189 191 192 193 194 196 198 200 203 206 210 214 217 219 221 223 224 224 224 225 227 229 230 232 232 233 233 234 235 236 238 239 240 241 243 245 246 248 249 250 252 253 254
313 314 315 315 314 314 317 322 325 318 290 234 204 194 189 184 179 176 176 177 177 178 177 177 177 176 175 174 173 173 174 175 176 178 180 182 184 186 187 188 189 190 191 192 193 194 195 196 197 199 201 204 207 211 214 217 220 222 224 225 226 226 227 229 231 233 234 236 236 237 238 238 240 241 242 243 244 246 247 248 249 251 251 253 254 255
310 311 311 311 310 309 310 312 315 310 284 239 211 198 194 190 185 181 179 179 180 180 181 181 181 181 180 179 178 178 178 178 180 181 183 184 186 188 189 190 191 192 193 194 195 196 197 198 199 200 202 205 207 211 214 216 218 220 223 225 226 227 229 230 232 234 236 237 238 239 240 241 242 243 244 246 247 248 249 250 251 252 253 253 254 255
306 307 307 307 306 304 303 303 304 301 281 243 217 203 197 194 191 187 184 183 183 183 184 184 185 185 185 184 184 183 183 183 183 184 185 187 188 189 191 192 193 193 194 196 197 198 199 200 201 202 204 206 208 210 212 214 216 218 221 223 226 227 229 231 233 235 236 238 239 240 241 242 243 244 245 246 248 249 250 251 252 253 254 254 255 256
302 303 303 302 301 299 297 295 294 290 276 246 223 209 202 198 196 193 190 188 186 186 187 187 188 189 189 189 189 188 187 188 188 188 188 189 190 191 192 193 194 195 196 197 198 199 200 201 203 204 206 207 209 211 212 213 214 216 219 221 224 226 228 231 232 234 236 238 239 240 241 242 243 244 245 246 247 249 250 251 253 254 254 255 256 256
299 299 299 298 296 293 290 288 286 282 272 252 229 215 207 202 199 197 195 193 191 190 190 190 191 192 193 193 193 193 192 192 192 191 192 192 193 193 194 195 195 196 197 198 199 200 201 203 204 206 207 209 210 212 212 213 214 215 217 219 221 224 226 229 231 233 235 236 238 239 241 242 243 244 244 245 246 247 249 250 252 253 254 255 256 257
296 295 295 293 291 288 284 281 278 275 268 255 235 220 212 206 203 201 199 198 196 194 194 194 194 195 196 196 197 196 196 196 195 195 195 195 195 196 196 197 197 198 198 199 200 202 203 205 206 207 208 210 211 213 213 214 214 215 217 218 220 222 224 227 229 231 232 234 236 238 239 241 242 243 243 244 245 246 247 249 251 252 254 255 256 257
293 292 291 289 287 283 279 274 271 268 264 256 241 226 216 211 207 204 203 201 200 199 198 198 197 198 199 199 200 199 199 199 198 198 197 197 198 198 198 199 199 200 200 201 202 203 205 206 207 208 209 211 212 213 214 215 216 216 217 219 220 222 224 226 228 229 231 233 234 236 238 239 240 241 242 243 243 245 246 248 249 251 253 255 256 258
290 289 288 286 283 279 274 269 265 261 259 254 245 233 222 215 211 208 205 204 203 202 202 201 200 200 201 202 202 202 202 201 201 201 200 200 200 200 201 201 202 202 202 203 204 205 207 208 209 210 210 212 213 214 216 217 217 218 219 220 221 223 224 226 228 229 231 232 234 235 237 238 239 240 241 242 243 244 246 247 249 251 252 254 256 258
288 287 286 283 280 276 271 265 260 256 253 251 245 238 228 220 214 211 209 207 206 206 205 204 204 204 204 204 204 205 204 204 204 203 203 203 202 202 202 203 204 205 205 205 206 207 209 210 210 211 211 212 214 215 217 218 219 219 220 221 222 224 225 227 228 230 231 232 234 235 237 238 239 240 241 242 243 245 246 248 249 251 253 255 257 259
286 285 284 282 278 274 269 263 257 252 249 247 244 240 233 225 219 214 212 210 209 208 208 207 207 207 207 207 207 207 207 206 206 206 206 205 205 204 204 205 206 207 208 208 209 210 211 212 212 212 213 213 215 216 218 219 220 221 222 223 224 226 227 228 229 231 232 233 234 236 237 238 239 240 242 243 244 245 247 248 250 251 253 255 257 259
285 284 283 280 277 273 268 262 256 250 246 243 241 239 236 230 223 218 215 213 211 211 210 210 210 210 209 209 209 209 209 209 209 209 209 208 208 207 207 207 208 209 210 211 212 213 214 214 214 214 214 215 216 217 218 220 221 222 223 225 226 228 229 230 231 232 233 234 235 236 237 238 239 241 242 243 244 246 247 248 250 251 253 255 257 258
283 282 281 279 276 273 268 262 256 249 244 240 239 237 236 232 227 222 218 215 214 213 212 212 212 212 212 212 212 212 211 211 211 211 211 211 210 210 210 210 210 211 212 213 214 215 216 217 217 217 216 217 217 218 219 221 222 224 225 226 228 229 231 232 233 234 235 236 237 238 238 239 240 241 242 243 244 246 247 248 250 251 253 254 256 258
282 281 280 278 275 272 268 263 256 250 244 240 237 235 234 233 230 226 222 218 216 214 214 214 213 214 214 214 214 214 214 214 213 213 213 213 213 213 213 212 213 213 214 215 216 217 218 219 219 219 219 219 219 220 221 222 223 225 226 228 229 231 232 233 234 235 236 237 238 239 239 240 241 242 243 244 245 246 247 249 250 251 252 254 255 257
280 279 278 276 274 271 268 263 257 251 245 240 236 234 232 231 230 228 225 221 218 216 216 215 215 215 215 216 216 216 216 216 215 215 215 215 215 215 215 215 215 216 216 217 217 218 220 221 221 221 221 221 222 222 223 224 225 226 228 229 231 232 233 234 235 236 237 238 239 240 240 241 242 243 244 245 246 248 249 250 251 252 253 254 255 257
279 277 276 275 273 270 267 264 259 253 247 241 237 233 231 230 230 229 227 224 221 219 217 216 216 216 217 217 217 218 218 218 218 217 217 217 217 217 217 218 218 218 218 219 219 220 221 222 222 223 223 224 224 225 225 225 226 228 229 231 232 234 235 236 236 237 238 239 240 240 241 242 243 244 245 246 247 249 250 251 252 253 254 255 256 257
277 276 275 273 271 269 266 263 259 254 249 243 238 234 231 229 229 228 227 226 224 222 220 218 217 217 218 218 219 219 220 220 219 219 219 219 219 219 219 220 220 220 221 221 221 221 222 222 223 224 225 225 226 227 227 228 228 229 230 232 233 235 236 237 237 238 239 240 240 241 242 243 244 245 246 247 248 249 250 251 253 254 255 256 257 258
276 274 273 272 270 268 265 263 259 255 250 245 240 235 232 229 228 227 227 226 225 224 222 220 219 218 218 219 219 220 220 220 221 220 221 221 221 221 221 221 222 222 223 223 223 224 224 223 223 224 225 226 227 228 228 229 229 230 231 232 234 235 236 237 238 239 240 240 241 242 243 244 244 245 246 247 248 249 250 252 253 254 255 256 257 258
274 273 271 270 268 266 264 262 259 256 252 247 242 238 233 230 228 227 227 226 225 225 223 222 221 220 219 219 220 220 221 221 221 222 222 222 222 222 222 223 223 224 224 225 225 226 226 225 225 225 225 226 227 228 228 229 230 230 231 232 234 235 236 237 238 239 240 241 241 242 243 244 245 246 247 248 248 249 250 252 253 254 255 256 257 258
272 271 270 268 267 265 263 261 259 256 253 249 245 240 236 232 230 228 227 226 226 225 224 223 222 221 220 220 220 220 221 221 222 222 223 223 224 224 224 224 224 225 226 226 227 227 228 228 228 227 227 227 228 228 229 230 230 231 231 232 234 235 236 237 238 239 240 241 242 242 243 244 245 246 247 247 248 249 250 251 252 253 255 256 257 258
270 269 268 267 266 264 262 261 259 257 254 251 248 243 239 235 232 229 228 227 226 226 225 224 223 223 222 221 221 221 221 221 222 223 223 224 224 224 225 225 225 226 226 227 228 229 229 230 230 230 229 229 229 229 230 231 231 232 233 233 234 235 236 237 238 239 240 241 242 243 243 244 245 246 247 248 248 249 250 251 252 253 254 255 256 257
268 268 266 265 264 263 262 260 259 257 255 253 250 246 242 238 235 232 230 228 227 227 226 226 225 224 223 222 222 221 221 222 222 223 223 224 225 225 225 226 226 226 227 228 229 229 230 231 231 231 231 232 231 231 232 232 233 233 234 235 235 236 237 238 239 240 241 242 242 243 244 245 245 246 247 248 249 250 250 251 252 253 254 255 256 257
267 266 265 264 264 263 262 260 259 258 256 254 252 249 246 242 238 235 232 230 229 228 227 227 226 226 225 224 223 223 222 222 222 223 224 224 225 225 226 226 226 227 227 228 229 230 230 231 232 233 233 233 233 233 233 234 234 235 236 236 237 237 238 238 239 240 241 242 243 244 245 245 246 247 248 249 249 250 251 252 253 253 254 255 256 257
265 265 264 263 263 262 261 260 259 258 257 255 253 251 248 245 242 238 235 233 231 230 229 228 228 227 227 226 225 225 224 223 223 223 224 224 225 225 226 226 227 227 228 228 229 229 230 231 232 233 234 234 234 235 235 235 235 236 237 237 238 239 239 240 240 241 242 243 244 244 245 246 247 247 248 249 250 251 252 252 253 254 254 255 256 257
264 264 263 263 262 262 261 260 259 258 257 256 254 252 250 248 245 242 239 236 234 232 231 230 229 229 229 228 228 227 226 225 225 224 224 224 225 225 226 226 227 227 228 228 229 230 230 231 232 233 234 234 235 235 236 236 236 237 237 238 239 240 240 241 241 242 243 243 244 245 246 246 247 248 249 249 250 251 252 253 254 254 255 256 256 257
263 263 262 262 261 261 260 260 259 258 257 256 255 253 252 250 248 245 242 240 237 235 233 231 231 230 230 230 229 229 229 228 227 226 226 226 226 226 226 227 227 227 228 228 229 229 230 231 231 232 233 234 235 236 236 237 237 238 238 239 240 241 241 242 243 243 244 244 245 246 246 247 248 248 249 250 251 252 253 253 254 255 256 256 257 257
262 262 262 261 261 260 260 259 258 258 257 256 255 253 252 251 250 248 246 244 241 238 236 234 233 232 231 231 231 231 231 230 230 229 228 228 227 227 227 227 227 227 228 228 229 229 230 231 231 232 233 234 235 236 237 237 238 238 239 240 240 241 242 242 243 244 244 245 246 246 247 248 248 249 250 250 251 252 253 254 255 256 256 257 258 258
261 261 261 261 261 260 260 259 258 257 256 255 254 253 253 252 251 250 248 247 245 243 240 238 236 234 233 233 232 232 232 232 232 232 231 230 230 229 229 229 229 229 228 229 229 229 230 230 231 232 232 233 234 235 236 237 238 239 240 240 241 241 242 243 243 244 245 246 246 247 248 248 249 250 250 251 252 252 253 254 255 256 257 258 259 259
261 261 261 260 260 260 259 258 257 256 255 255 254 253 252 252 251 251 250 249 248 246 244 242 240 237 236 234 234 233 233 233 234 234 233 233 232 232 231 231 231 230 230 230 230 230 230 230 231 232 232 233 234 234 235 236 237 238 239 240 241 242 243 243 244 244 245 246 246 247 248 248 249 250 251 251 252 253 254 254 255 256 257 258 259 260
261 261 260 260 260 259 259 258 257 256 256 255 254 253 253 252 251 251 250 250 249 248 247 245 243 241 239 237 236 235 234 234 235 235 235 235 235 234 234 233 233 232 232 232 231 231 231 231 231 232 232 233 233 234 235 236 237 238 239 240 241 242 243 243 244 244 245 246 246 247 247 248 249 250 251 251 252 253 254 255 256 257 257 258 260 261
260 260 260 260 260 260 259 258 258 257 256 255 254 253 253 252 252 251 251 250 250 249 248 248 246 245 243 241 239 237 236 235 235 236 236 236 236 236 236 236 235 235 234 234 233 233 232 232 232 232 233 233 234 234 235 235 236 237 238 239 240 241 242 243 244 244 245 246 246 247 247 248 249 249 250 251 252 253 254 255 256 257 257 258 260 261
261 261 260 260 260 260 259 259 259 258 257 256 255 254 253 253 252 252 251 251 250 250 249 248 248 247 246 244 242 240 238 237 236 236 236 236 237 237 237 237 237 237 236 236 235 235 235 234 234 234 234 234 234 235 235 235 236 237 237 238 239 240 241 242 243 244 245 246 246 247 247 248 248 249 250 250 251 252 253 254 255 256 257 258 259 260
260 260 260 260 260 260 260 260 259 259 258 257 256 255 254 254 253 252 252 251 251 250 249 249 248 248 247 246 245 243 241 240 238 237 237 237 237 237 238 238 238 238 238 238 237 237 237 236 236 235 235 235 235 235 236 236 237 237 237 238 239 239 240 241 242 243 244 245 246 247 247 248 249 249 250 250 251 252 253 253 254 255 257 258 259 260
261 261 261 260 260 260 260 260 260 260 259 258 257 257 256 255 254 253 252 251 251 250 250 249 249 248 248 247 246 245 244 242 241 239 238 238 237 238 238 238 239 239 239 239 239 239 238 238 238 237 237 237 237 237 237 237 237 238 238 238 239 240 240 241 242 242 243 244 245 246 247 248 249 249 250 250 251 251 252 253 254 254 256 257 258 259
261 261 261 260 260 260 260 260 260 260 259 259 258 258 257 256 255 254 253 252 251 251 250 249 249 248 248 247 247 246 245 244 243 242 240 239 239 238 238 238 239 239 239 240 240 240 240 239 239 239 238 238 238 238 238 238 238 239 239 239 240 240 241 241 242 243 243 244 245 246 247 248 248 249 250 251 251 252 252 253 253 254 255 256 257 258
261 261 260 260 260 260 260 260 260 260 259 259 259 258 258 257 256 255 254 253 252 251 250 250 249 249 248 248 247 246 246 245 244 243 242 241 240 239 239 239 239 239 239 240 240 240 240 240 240 240 240 239 239 239 239 239 239 239 240 240 240 241 241 242 242 243 243 244 245 246 247 248 248 249 250 251 252 252 253 253 253 254 255 255 256 257
261 261 260 260 260 260 260 259 259 259 259 259 259 259 258 258 257 256 255 254 253 252 251 251 250 249 249 248 247 247 246 246 245 244 243 243 242 241 240 240 239 239 239 240 240 240 241 241 241 241 241 240 240 240 241 241 240 240 241 241 241 242 242 243 243 243 244 245 245 246 247 248 249 249 250 251 252 253 253 254 254 255 255 256 257 258
Height
10509 10507 10504 10501 10497 10493 10489 10485 10481 10478 10476 10473 10472 10469 10465 10463 10462 10461 10461 10461 10459 10459 10459 10460 10461 10463 10465 10467 10469 10472 10475 10479 10484 10491 10497 10504 10512 10520 10530 10538 10544 10551 10558 10562 10568 10574 10579 10582 10583 10583 10586 10589 10592 10594 10596 10598 10600 10603 10604 10608 10609 10611 10611 10612 10613 10614 10616 10618 10619 10620 10621 10622 10623 10624 10624 10626 10626 10627 10626 10626 10625 10626 10626 10628 10629 10631
10509 10506 10504 10501 10498 10494 10490 10486 10483 10480 10478 10476 10474 10472 10470 10468 10466 10465 10466 10466 10463 10462 10462 10463 10464 10466 10468 10471 10473 10475 10479 10483 10488 10494 10501 10508 10514 10522 10533 10539 10544 10551 10558 10565 10571 10575 10578 10579 10581 10583 10585 10586 10588 10591 10594 10596 10599 10601 10603 10606 10607 10608 10608 10609 10611 10613 10614 10616 10617 10618 10619 10619 10620 10621 10622 10623 10624 10624 10624 10623 10622 10622 10623 10624 10626 10627
10508 10506 10503 10501 10498 10494 10491 10488 10484 10482 10479 10478 10476 10475 10474 10473 10471 10470 10469 10469 10467 10465 10466 10468 10469 10471 10472 10474 10476 10479 10483 10487 10492 10498 10504 10511 10516 10523 10530 10536 10542 10549 10556 10562 10565 10568 10573 10578 10581 10583 10584 10584 10586 10589 10592 10596 10598 10599 10601 10603 10604 10605 10606 10608 10609 10611 10613 10614 10614 10615 10616 10616 10618 10618 10619 10621 10621 10621 10621 10619 10619 10619 10619 10621 10623 10623
10508 10506 10503 10501 10498 10496 10492 10489 10486 10483 10481 10479 10478 10477 10476 10474 10474 10474 10472 10470 10469 10469 10472 10474 10476 10476 10476 10478 10481 10483 10487 10491 10496 10501 10507 10512 10518 10525 10532 10538 10544 10550 10555 10561 10565 10568 10571 10574 10578 10580 10582 10583 10586 10588 10591 10594 10596 10598 10599 10601 10603 10604 10605 10606 10608 10609 10611 10611 10612 10613 10613 10613 10614 10616 10617 10618 10619 10619 10618 10616 10615 10616 10616 10618 10619 10619
10508 10506 10504 10501 10499 10496 10493 10490 10488 10485 10483 10482 10481 10479 10478 10477 10476 10476 10474 10474 10474 10475 10477 10479 10481 10482 10481 10483 10485 10488 10491 10495 10499 10503 10508 10513 10518 10524 10531 10536 10543 10551 10558 10563 10565 10567 10570 10573 10576 10578 10579 10582 10584 10588 10590 10593 10596 10597 10598 10601 10602 10603 10603 10604 10606 10607 10608 10608 10609 10609 10609 10610 10611 10613 10614 10616 10616 10616 10614 10613 10612 10613 10614 10615 10615 10615
10508 10506 10504 10502 10499 10497 10494 10492 10489 10487 10485 10484 10483 10482 10481 10479 10478 10478 10477 10477 10478 10480 10482 10484 10486 10488 10487 10488 10489 10492 10495 10498 10501 10504 10508 10511 10516 10520 10525 10530 10535 10543 10553 10560 10564 10568 10571 10574 10576 10578 10580 10582 10584 10587 10589 10593 10594 10596 10598 10599 10600 10600 10600 10601 10602 10603 10604 10604 10605 10605 10606 10606 10608 10609 10611 10613 10613 10613 10611 10609 10608 10609 10611 10612 10612 10612
10508 10506 10504 10503 10500 10498 10496 10493 10491 10489 10488 10486 10485 10484 10483 10483 10482 10481 10481 10480 10481 10483 10486 10488 10491 10491 10492 10493 10494 10498 10499 10500 10502 10504 10507 10509 10513 10517 10522 10527 10531 10536 10541 10548 10555 10561 10566 10569 10574 10579 10583 10584 10585 10587 10589 10591 10593 10594 10594 10594 10594 10594 10594 10596 10598 10599 10600 10600 10601 10601 10601 10603 10604 10606 10608 10609 10609 10609 10607 10605 10605 10606 10608 10608 10608 10608
10508 10506 10504 10503 10501 10499 10497 10494 10493 10491 10489 10489 10488 10487 10486 10486 10486 10485 10484 10484 10484 10486 10488 10491 10494 10495 10496 10498 10501 10503 10503 10503 10503 10505 10507 10509 10512 10516 10520 10526 10531 10534 10538 10541 10546 10551 10556 10560 10566 10574 10581 10585 10586 10586 10588 10588 10588 10587 10586 10585 10584 10586 10588 10591 10593 10595 10596 10596 10596 10597 10598 10599 10600 10602 10604 10605 10605 10604 10603 10601 10601 10603 10604 10604 10605 10605
10508 10506 10504 10503 10501 10499 10498 10496 10494 10493 10491 10491 10490 10489 10489 10489 10489 10489 10489 10489 10489 10490 10491 10494 10496 10498 10501 10504 10506 10508 10509 10508 10507 10508 10509 10511 10513 10516 10520 10524 10529 10534 10539 10543 10546 10549 10553 10557 10561 10566 10573 10579 10581 10581 10579 10579 10578 10578 10578 10578 10578 10581 10584 10588 10590 10591 10591 10591 10592 10593 10594 10595 10597 10599 10600 10601 10601 10601 10599 10598 10598 10598 10600 10601 10601 10601
10508 10506 10504 10503 10502 10500 10499 10497 10495 10494 10493 10493 10493 10492 10492 10492 10493 10493 10493 10493 10493 10494 10495 10496 10498 10499 10503 10506 10509 10512 10513 10513 10513 10513 10514 10514 10516 10518 10521 10524 10528 10533 10537 10541 10546 10550 10553 10557 10559 10561 10564 10568 10570 10571 10570 10571 10571 10572 10573 10574 10576 10580 10584 10586 10588 10588 10587 10588 10589 10589 10591 10592 10594 10595 10596 10598 10598 10596 10594 10593 10593 10594 10595 10596 10597 10598
10507 10505 10504 10503 10502 10501 10499 10498 10497 10496 10495 10494 10494 10494 10494 10494 10495 10496 10496 10497 10497 10498 10498 10499 10501 10502 10503 10506 10509 10511 10514 10516 10518 10519 10520 10521 10522 10523 10524 10526 10529 10533 10536 10539 10543 10547 10551 10554 10556 10558 10559 10560 10563 10564 10564 10566 10567 10568 10569 10572 10575 10579 10582 10583 10583 10583 10584 10584 10585 10586 10588 10589 10590 10591 10593 10594 10594 10592 10590 10589 10589 10590 10591 10592 10593 10594
10507 10505 10503 10503 10502 10501 10500 10499 10498 10497 10496 10496 10496 10496 10496 10497 10498 10499 10499 10500 10501 10501 10501 10502 10503 10504 10505 10507 10509 10511 10514 10516 10519 10521 10523 10524 10526 10527 10529 10529 10531 10534 10536 10539 10542 10545 10548 10551 10553 10555 10557 10559 10561 10563 10564 10564 10565 10566 10568 10569 10573 10575 10577 10578 10578 10579 10579 10580 10581 10583 10584 10585 10586 10588 10589 10589 10589 10587 10586 10585 10585 10586 10588 10589 10590 10591
10506 10505 10503 10502 10501 10501 10501 10499 10498 10498 10497 10497 10498 10498 10498 10498 10499 10501 10502 10503 10504 10504 10504 10505 10506 10506 10508 10509 10511 10513 10514 10517 10518 10520 10522 10524 10526 10528 10531 10533 10534 10536 10538 10540 10543 10545 10547 10549 10551 10554 10556 10559 10561 10563 10564 10565 10566 10568 10568 10569 10571 10572 10573 10573 10574 10574 10575 10576 10577 10579 10581 10581 10583 10583 10584 10584 10584 10584 10583 10582 10582 10583 10585 10586 10588 10589
10505 10504 10503 10502 10501 10501 10501 10500 10499 10498 10498 10498 10498 10499 10499 10499 10501 10502 10503 10504 10506 10507 10508 10508 10508 10509 10509 10511 10512 10514 10516 10517 10519 10521 10522 10524 10526 10529 10531 10533 10535 10538 10539 10541 10543 10544 10547 10549 10551 10553 10556 10558 10559 10561 10563 10564 10567 10569 10569 10569 10569 10570 10571 10571 10571 10572 10573 10573 10574 10576 10578 10579 10579 10579 10581 10581 10581 10581 10580 10579 10580 10581 10583 10584 10586 10586
10504 10503 10503 10501 10501 10500 10500 10500 10499 10499 10498 10498 10499 10499 10500 10501 10501 10503 10504 10505 10507 10508 10509 10510 10511 10511 10511 10512 10513 10515 10516 10518 10519 10521 10522 10524 10526 10529 10531 10533 10536 10538 10540 10541 10543 10545 10547 10549 10551 10553 10555 10557 10559 10561 10564 10566 10568 10568 10568 10568 10568 10569 10569 10570 10570 10571 10571 10573 10574 10575 10576 10577 10578 10578 10578 10578 10578 10578 10578 10577 10578 10579 10581 10582 10583 10584
10503 10503 10502 10501 10500 10499 10499 10499 10499 10499 10499 10499 10499 10499 10501 10501 10502 10503 10504 10506 10507 10509 10510 10511 10512 10513 10513 10514 10515 10516 10517 10518 10519 10521 10522 10524 10526 10528 10530 10533 10535 10538 10539 10541 10543 10545 10547 10549 10551 10553 10557 10561 10565 10568 10568 10569 10569 10568 10566 10566 10566 10568 10568 10568 10569 10569 10570 10571 10573 10574 10575 10576 10576 10576 10576 10576 10576 10575 10575 10574 10575 10576 10578 10579 10580 10581
10501 10501 10501 10500 10499 10499 10499 10499 10499 10499 10499 10499 10499 10499 10501 10501 10503 10503 10504 10506 10507 10508 10510 10511 10512 10513 10514 10515 10516 10517 10518 10518 10519 10521 10522 10524 10526 10528 10530 10532 10534 10536 10538 10541 10543 10546 10546 10549 10553 10557 10561 10565 10568 10568 10567 10566 10565 10564 10563 10563 10564 10565 10566 10566 10566 10568 10568 10569 10570 10571 10572 10573 10573 10573 10573 10573 10573 10573 10573 10573 10573 10574 10574 10576 10577 10578
10499 10499 10499 10499 10499 10498 10498 10498 10498 10498 10498 10498 10498 10499 10500 10501 10503 10504 10504 10505 10506 10508 10509 10511 10512 10513 10514 10514 10516 10517 10518 10519 10520 10521 10522 10523 10525 10528 10530 10531 10533 10535 10538 10540 10543 10545 10548 10551 10554 10556 10556 10557 10557 10557 10558 10559 10560 10560 10560 10561 10562 10563 10563 10564 10564 10566 10566 10567 10568 10568 10568 10569 10569 10570 10570 10570 10570 10570 10569 10570 10570 10570 10571 10572 10573 10574
10498 10498 10498 10498 10498 10497 10497 10497 10497 10498 10498 10498 10498 10498 10499 10501 10502 10503 10504 10505 10506 10507 10509 10510 10511 10512 10513 10514 10515 10516 10518 10519 10519 10521 10522 10523 10525 10527 10529 10531 10533 10534 10536 10538 10541 10544 10547 10548 10547 10547 10548 10549 10549 10551 10553 10554 10555 10556 10558 10559 10561 10561 10561 10562 10563 10563 10563 10564 10564 10564 10565 10566 10566 10567 10568 10568 10567 10567 10567 10567 10567 10567 10567 10568 10569 10570
10496 10496 10496 10496 10496 10496 10496 10496 10496 10496 10497 10497 10498 10498 10498 10499 10501 10502 10504 10504 10506 10506 10508 10509 10510 10511 10512 10513 10514 10516 10517 10518 10519 10521 10521 10523 10524 10526 10528 10529 10531 10533 10535 10537 10539 10541 10543 10543 10543 10544 10544 10545 10546 10547 10549 10550 10551 10552 10553 10553 10554 10556 10557 10558 10558 10559 10559 10560 10561 10561 10562 10563 10564 10564 10564 10564 10564 10564 10564 10564 10564 10564 10564 10564 10565 10566
10493 10494 10494 10494 10494 10494 10494 10494 10494 10495 10496 10496 10496 10497 10498 10498 10499 10501 10502 10504 10504 10506 10506 10508 10509 10510 10511 10512 10513 10514 10516 10518 10519 10519 10521 10522 10523 10525 10526 10528 10529 10531 10533 10536 10538 10539 10539 10540 10539 10539 10540 10541 10543 10543 10544 10546 10546 10546 10547 10548 10549 10550 10551 10552 10553 10554 10555 10556 10557 10558 10559 10560 10561 10561 10561 10562 10562 10562 10562 10562 10562 10562 10561 10561 10562 10563
10491 10491 10492 10493 10493 10493 10493 10493 10493 10494 10494 10494 10495 10496 10496 10497 10498 10499 10501 10502 10503 10504 10505 10506 10507 10508 10509 10510 10511 10513 10514 10516 10517 10519 10520 10521 10523 10524 10525 10526 10528 10529 10530 10531 10533 10534 10535 10535 10536 10537 10538 10539 10540 10541 10541 10541 10542 10542 10543 10544 10545 10546 10547 10548 10549 10550 10552 10553 10554 10555 10556 10557 10558 10558 10559 10559 10559 10559 10559 10559 10559 10559 10559 10559 10559 10559
10488 10489 10489 10490 10491 10491 10491 10491 10492 10492 10493 10493 10493 10494 10495 10495 10496 10497 10498 10500 10501 10503 10504 10504 10506 10507 10508 10509 10510 10511 10513 10514 10516 10518 10519 10520 10521 10523 10524 10526 10526 10527 10528 10528 10529 10529 10529 10530 10531 10533 10535 10537 10538 10539 10539 10539 10539 10539 10540 10541 10541 10543 10544 10545 10547 10548 10549 10551 10552 10553 10553 10554 10555 10556 10556 10556 10556 10556 10556 10557 10557 10557 10558 10558 10558 10558
10485 10486 10486 10487 10488 10489 10489 10489 10490 10490 10491 10491 10491 10492 10493 10494 10494 10495 10496 10498 10499 10501 10502 10503 10504 10506 10506 10508 10509 10510 10511 10513 10514 10516 10517 10518 10519 10521 10523 10524 10524 10525 10526 10526 10527 10528 10528 10529 10529 10531 10534 10535 10536 10536 10537 10537 10537 10537 10538 10538 10539 10540 10541 10543 10544 10546 10548 10549 10550 10551 10551 10552 10553 10553 10553 10554 10554 10554 10554 10555 10555 10556 10556 10556 10556 10557
10482 10483 10483 10484 10485 10486 10486 10487 10488 10488 10489 10489 10489 10490 10491 10492 10493 10493 10494 10495 10496 10498 10499 10501 10503 10503 10504 10505 10506 10508 10509 10510 10512 10513 10514 10516 10518 10519 10521 10522 10523 10523 10524 10524 10525 10525 10526 10527 10528 10530 10532 10533 10533 10533 10534 10534 10534 10534 10535 10536 10536 10537 10538 10539 10541 10543 10544 10546 10547 10548 10548 10549 10549 10550 10551 10551 10551 10552 10553 10553 10554 10554 10554 10554 10555 10556
10479 10479 10480 10481 10481 10483 10483 10484 10485 10486 10486 10486 10487 10488 10488 10489 10490 10491 10492 10493 10494 10495 10496 10498 10499 10500 10501 10503 10504 10505 10506 10508 10509 10511 10511 10513 10514 10516 10518 10519 10520 10521 10521 10522 10523 10523 10524 10524 10526 10527 10528 10529 10529 10530 10530 10531 10531 10532 10532 10533 10533 10534 10535 10536 10538 10539 10541 10543 10544 10544 10545 10546 10547 10548 10548 10548 10549 10549 10550 10551 10551 10552 10552 10553 10553 10554
10475 10476 10476 10477 10478 10479 10480 10481 10482 10483 10483 10484 10484 10485 10486 10486 10487 10488 10489 10490 10491 10492 10493 10494 10496 10497 10499 10500 10501 10503 10504 10505 10506 10508 10509 10510 10512 10513 10515 10516 10518 10518 10519 10520 10521 10521 10521 10522 10523 10524 10525 10526 10526 10527 10527 10528 10528 10529 10529 10529 10530 10531 10532 10533 10535 10536 10538 10539 10540 10541 10542 10543 10544 10544 10545 10546 10546 10547 10548 10548 10548 10549 10549 10550 10551 10551
10471 10472 10473 10473 10474 10475 10476 10477 10478 10479 10480 10481 10481 10482 10483 10483 10484 10484 10486 10487 10488 10489 10490 10491 10493 10494 10495 10497 10498 10499 10501 10502 10503 10504 10506 10508 10509 10510 10511 10513 10514 10516 10516 10517 10518 10518 10519 10520 10521 10522 10523 10523 10524 10524 10524 10525 10526 10526 10527 10527 10528 10529 10529 10531 10532 10533 10534 10536 10537 10538 10539 10540 10541 10541 10542 10543 10543 10544 10544 10544 10545 10546 10546 10548 10548 10548
10468 10468 10469 10469 10470 10471 10472 10473 10474 10475 10476 10478 10478 10479 10479 10480 10481 10481 10483 10484 10484 10486 10486 10488 10489 10490 10491 10493 10494 10496 10498 10499 10500 10501 10503 10504 10505 10506 10508 10510 10511 10512 10513 10514 10515 10516 10517 10518 10518 10519 10519 10520 10521 10521 10522 10523 10523 10524 10524 10524 10525 10526 10526 10528 10529 10530 10531 10533 10534 10535 10536 10537 10538 10539 10539 10540 10541 10541 10542 10542 10543 10543 10544 10544 10545 10546
10463 10464 10464 10466 10466 10467 10468 10469 10470 10471 10473 10473 10474 10475 10476 10477 10477 10478 10479 10480 10481 10482 10483 10484 10485 10486 10488 10489 10491 10492 10494 10495 10496 10498 10500 10501 10501 10503 10504 10506 10508 10508 10509 10511 10512 10513 10513 10514 10515 10516 10516 10517 10518 10518 10519 10519 10520 10521 10521 10522 10523 10523 10523 10524 10525 10526 10528 10529 10530 10531 10533 10534 10535 10536 10537 10538 10538 10539 10539 10539 10540 10540 10541 10542 10543 10543
10459 10460 10461 10461 10462 10463 10464 10464 10466 10467 10468 10469 10470 10471 10472 10473 10474 10474 10475 10476 10478 10478 10479 10480 10481 10483 10484 10485 10486 10488 10489 10491 10493 10494 10496 10496 10498 10499 10501 10502 10503 10504 10506 10507 10508 10509 10509 10510 10511 10513 10513 10514 10514 10514 10515 10516 10517 10518 10519 10519 10519 10520 10520 10521 10522 10523 10524 10526 10527 10528 10529 10530 10531 10533 10533 10534 10535 10536 10536 10536 10537 10538 10538 10539 10539 10540
10455 10456 10456 10457 10458 10458 10459 10460 10461 10462 10463 10464 10466 10467 10468 10469 10469 10471 10471 10472 10473 10474 10475 10476 10478 10479 10479 10481 10482 10483 10484 10486 10488 10490 10491 10493 10493 10494 10496 10498 10499 10500 10501 10503 10504 10504 10506 10506 10507 10508 10509 10510 10511 10511 10512 10513 10514 10514 10515 10516 10516 10516 10517 10518 10519 10519 10521 10522 10523 10524 10526 10526 10528 10529 10529 10530 10531 10532 10533 10533 10534 10534 10535 10536 10536 10537
10451 10451 10452 10453 10453 10454 10454 10456 10456 10458 10459 10460 10461 10463 10463 10464 10466 10466 10467 10468 10469 10470 10471 10472 10473 10474 10475 10476 10478 10479 10480 10482 10484 10486 10487 10488 10489 10491 10492 10493 10494 10496 10497 10498 10499 10500 10501 10503 10503 10504 10506 10506 10506 10508 10508 10509 10510 10511 10512 10513 10513 10513 10514 10514 10515 10516 10517 10518 10519 10521 10521 10523 10524 10524 10526 10526 10527 10528 10529 10529 10530 10531 10531 10532 10533 10533
10446 10447 10448 10448 10449 10449 10450 10451 10452 10453 10454 10455 10456 10458 10459 10460 10461 10462 10463 10464 10464 10466 10466 10468 10468 10469 10471 10472 10473 10474 10476 10478 10479 10481 10482 10483 10484 10486 10488 10489 10490 10491 10493 10494 10494 10496 10497 10498 10499 10501 10501 10502 10503 10504 10504 10505 10506 10507 10508 10509 10509 10509 10510 10511 10512 10513 10513 10514 10516 10516 10518 10519 10519 10521 10521 10523 10523 10524 10524 10525 10526 10527 10528 10528 10529 10530
10442 10443 10443 10444 10444 10445 10446 10446 10448 10448 10449 10450 10451 10453 10454 10455 10456 10458 10458 10459 10460 10461 10462 10463 10464 10464 10466 10467 10468 10469 10471 10473 10474 10476 10477 10478 10479 10481 10483 10484 10485 10486 10488 10489 10490 10491 10492 10493 10494 10496 10496 10498 10499 10499 10501 10501 10502 10503 10504 10505 10506 10506 10507 10508 10508 10509 10509 10511 10511 10513 10513 10514 10516 10516 10518 10518 10519 10519 10520 10521 10522 10523 10524 10524 10526 10526
10438 10438 10439 10439 10440 10441 10441 10442 10443 10444 10444 10446 10447 10448 10449 10451 10452 10453 10454 10455 10456 10456 10458 10458 10459 10460 10461 10462 10463 10464 10466 10467 10469 10471 10472 10473 10474 10476 10478 10479 10480 10481 10483 10484 10485 10486 10487 10488 10489 10491 10492 10493 10494 10494 10496 10497 10498 10499 10500 10501 10501 10502 10503 10504 10504 10505 10506 10507 10508 10508 10509 10511 10512 10513 10513 10514 10514 10515 10516 10517 10518 10519 10520 10521 10522 10523
10433 10434 10434 10435 10436 10436 10437 10438 10439 10439 10440 10441 10442 10443 10444 10446 10447 10448 10449 10450 10451 10452 10453 10454 10454 10456 10456 10458 10458 10459 10461 10463 10464 10466 10467 10468 10469 10471 10472 10473 10475 10476 10478 10479 10480 10481 10482 10483 10484 10486 10487 10488 10488 10489 10491 10493 10494 10495 10495 10496 10497 10498 10499 10499 10501 10501 10502 10503 10503 10504 10506 10507 10508 10509 10509 10510 10511 10511 10512 10513 10514 10515 10516 10517 10518 10519
10429 10430 10431 10431 10432 10433 10433 10434 10434 10435 10436 10437 10438 10439 10440 10441 10442 10443 10444 10446 10447 10448 10448 10449 10450 10451 10452 10453 10454 10455 10456 10458 10459 10460 10461 10463 10464 10466 10467 10468 10470 10471 10473 10474 10475 10476 10478 10478 10479 10481 10481 10482 10483 10484 10486 10488 10489 10489 10490 10491 10493 10494 10494 10495 10496 10497 10498 10499 10499 10500 10501 10503 10503 10504 10505 10506 10507 10508 10508 10509 10510 10511 10513 10513 10514 10515
10426 10426 10427 10428 10428 10429 10429 10430 10431 10431 10432 10433 10434 10434 10435 10436 10437 10438 10439 10441 10442 10443 10444 10445 10446 10447 10448 10448 10449 10451 10452 10453 10454 10455 10456 10458 10459 10460 10461 10463 10464 10466 10467 10469 10470 10471 10473 10473 10474 10475 10476 10477 10478 10479 10481 10483 10483 10484 10485 10486 10488 10489 10489 10491 10492 10493 10494 10494 10495 10496 10497 10498 10499 10500 10501 10502 10503 10503 10504 10505 10506 10507 10508 10509 10511 10511
10422 10423 10423 10424 10424 10425 10426 10426 10427 10428 10428 10429 10430 10431 10431 10432 10433 10434 10435 10436 10437 10438 10439 10440 10441 10443 10443 10444 10446 10446 10448 10449 10450 10451 10452 10453 10454 10455 10456 10458 10459 10460 10462 10463 10465 10466 10467 10468 10469 10470 10471 10473 10474 10474 10476 10477 10478 10479 10481 10482 10483 10484 10484 10486 10487 10488 10489 10490 10491 10491 10493 10494 10494 10496 10496 10498 10498 10499 10500 10501 10501 10503 10504 10506 10506 10508
10418 10419 10419 10420 10421 10421 10422 10423 10424 10424 10425 10426 10426 10426 10427 10428 10429 10429 10430 10431 10433 10433 10434 10436 10437 10438 10439 10441 10441 10443 10444 10444 10446 10447 10448 10449 10449 10451 10451 10453 10454 10455 10457 10458 10459 10461 10462 10463 10464 10465 10466 10468 10469 10469 10471 10472 10473 10474 10476 10477 10478 10478 10479 10481 10483 10483 10484 10485 10486 10487 10488 10489 10490 10491 10492 10493 10494 10495 10496 10497 10498 10498 10499 10501 10502 10503
10414 10415 10416 10416 10417 10418 10419 10419 10420 10421 10421 10422 10423 10423 10423 10424 10424 10425 10426 10427 10428 10429 10430 10431 10433 10434 10435 10436 10438 10439 10439 10441 10441 10443 10444 10444 10446 10446 10448 10448 10449 10450 10451 10453 10454 10455 10456 10458 10459 10460 10461 10463 10464 10465 10466 10467 10468 10469 10471 10472 10472 10473 10475 10476 10478 10478 10479 10481 10481 10483 10484 10484 10486 10486 10488 10489 10489 10491 10492 10493 10494 10494 10495 10496 10498 10499
10411 10411 10412 10413 10413 10414 10415 10416 10416 10417 10418 10418 10419 10419 10420 10421 10421 10422 10423 10423 10424 10424 10426 10427 10428 10429 10431 10431 10433 10434 10436 10436 10438 10438 10439 10440 10441 10443 10443 10444 10445 10446 10447 10448 10449 10449 10451 10452 10453 10454 10455 10457 10458 10459 10461 10462 10463 10465 10466 10467 10468 10469 10471 10471 10472 10473 10475 10476 10477 10478 10479 10480 10481 10482 10483 10484 10485 10486 10488 10489 10490 10491 10491 10493 10493 10494
10407 10408 10408 10409 10409 10410 10411 10411 10412 10413 10413 10414 10414 10415 10416 10417 10418 10418 10418 10419 10420 10421 10422 10423 10424 10425 10426 10427 10428 10429 10431 10432 10433 10434 10435 10436 10437 10438 10439 10440 10441 10442 10443 10443 10444 10445 10446 10447 10448 10449 10450 10452 10453 10454 10455 10456 10458 10459 10461 10462 10463 10464 10465 10465 10466 10468 10470 10471 10472 10473 10474 10475 10476 10478 10479 10479 10481 10482 10483 10484 10486 10487 10488 10489 10490 10491
10403 10403 10404 10404 10405 10406 10406 10407 10408 10409 10409 10410 10411 10411 10412 10413 10414 10414 10414 10415 10416 10417 10418 10418 10419 10420 10421 10422 10423 10424 10426 10427 10428 10429 10431 10431 10433 10433 10434 10435 10436 10437 10438 10439 10439 10441 10441 10443 10443 10444 10445 10447 10448 10449 10449 10451 10453 10454 10455 10457 10458 10459 10459 10461 10463 10464 10465 10466 10466 10468 10469 10471 10472 10473 10474 10475 10476 10478 10479 10480 10481 10483 10484 10485 10486 10487
10399 10399 10400 10400 10401 10401 10402 10403 10403 10404 10404 10406 10406 10407 10408 10409 10409 10410 10411 10411 10412 10413 10413 10414 10415 10416 10416 10418 10419 10419 10421 10422 10423 10424 10426 10426 10428 10428 10429 10430 10431 10433 10433 10434 10435 10436 10437 10438 10438 10439 10441 10442 10443 10443 10444 10446 10447 10448 10450 10451 10453 10454 10455 10456 10458 10459 10460 10461 10462 10463 10464 10466 10467 10468 10469 10470 10471 10473 10474 10476 10478 10479 10480 10481 10483 10483
10394 10395 10396 10396 10396 10397 10398 10398 10399 10399 10400 10401 10401 10403 10403 10404 10405 10406 10406 10407 10408 10408 10409 10410 10411 10411 10411 10413 10414 10414 10416 10416 10418 10419 10420 10421 10422 10423 10424 10425 10426 10427 10428 10429 10430 10431 10432 10433 10434 10435 10436 10437 10438 10438 10439 10441 10442 10443 10444 10446 10448 10449 10450 10451 10453 10454 10455 10456 10458 10458 10459 10461 10462 10463 10464 10465 10467 10469 10470 10472 10474 10475 10476 10478 10478 10479
10390 10391 10391 10391 10392 10393 10393 10393 10394 10394 10395 10396 10396 10398 10399 10399 10400 10401 10401 10403 10403 10404 10404 10405 10406 10406 10407 10408 10409 10409 10410 10411 10412 10413 10414 10416 10416 10418 10419 10419 10421 10421 10423 10424 10424 10426 10426 10428 10429 10430 10431 10432 10433 10433 10434 10436 10438 10438 10439 10441 10443 10444 10445 10446 10448 10449 10451 10452 10453 10454 10455 10456 10458 10458 10459 10461 10462 10464 10465 10467 10469 10471 10473 10473 10474 10476
10386 10386 10386 10387 10388 10388 10388 10389 10389 10389 10390 10391 10391 10393 10393 10394 10395 10396 10396 10398 10398 10399 10399 10400 10401 10401 10402 10403 10404 10404 10405 10406 10407 10408 10409 10410 10411 10412 10413 10414 10415 10416 10417 10418 10419 10420 10421 10422 10423 10424 10426 10427 10428 10428 10429 10431 10432 10433 10434 10436 10438 10439 10440 10441 10443 10444 10446 10448 10449 10449 10451 10452 10453 10453 10454 10456 10458 10459 10460 10463 10464 10466 10468 10469 10471 10472
10381 10381 10382 10382 10383 10383 10383 10384 10384 10385 10385 10386 10386 10387 10388 10389 10389 10391 10391 10392 10393 10394 10394 10395 10396 10396 10397 10398 10399 10399 10400 10401 10401 10402 10403 10404 10405 10406 10407 10408 10409 10410 10411 10411 10413 10414 10415 10416 10418 10419 10420 10421 10423 10423 10424 10426 10427 10429 10430 10431 10433 10434 10435 10437 10438 10440 10442 10443 10444 10446 10447 10448 10449 10449 10451 10452 10453 10454 10456 10458 10460 10462 10464 10465 10467 10468
10376 10376 10377 10377 10378 10378 10378 10379 10379 10379 10380 10381 10381 10382 10383 10383 10384 10385 10386 10387 10388 10388 10389 10389 10391 10391 10392 10393 10393 10394 10395 10396 10396 10397 10398 10398 10399 10400 10401 10402 10403 10404 10404 10406 10406 10408 10409 10410 10411 10413 10414 10416 10417 10418 10419 10420 10422 10423 10425 10426 10428 10429 10431 10432 10434 10435 10437 10439 10440 10441 10443 10444 10444 10446 10446 10448 10448 10449 10451 10453 10455 10457 10459 10461 10463 10464